STARLINK-34

decayed
NORAD ID: 44248 Int'l Des: 2019-029 Owner: SPXS Country: US Constellation: starlink
LEOCIRCULAR
Group

About STARLINK-34

Description loading...

Altitude History

Altitude vs Time

uPlot chart will show altitude changes over time

Two-Line Element Set

1 44248U 19029P 20246.89959375 .49940950 12557-4 10158-2 0 9993
2 44248 52.9949 139.2923 0003683 270.3120 109.3827 16.46912557 71853
Epoch: Sep 2, 2020 • Age: 44132 hours

Current Status

Position data unavailable
Launch Date May 24, 2019
Age 6.3 years
Decay Date Sep 2, 2020
Type internet

Technical Details

Classification Payload
Mass 227.00 kg
Dry Mass 219.00 kg
Total Mass 227.00 kg
Length 0.20 m
Diameter 2.80 m
Span 9.00 m
Shape Box + pan
Manufacturer SPXS
Bus Type Starlink
Phase Status Reentered
Owner/State SPXS/US

Large Constellations

Loading constellations...